Temp
17 17 17 17 17 17 18 18 18 18 18 18 18 18 19 19 19 18 18 19 19 19 19 19 20 20 20 19 19 19 19 19 20 19 17 17 17 18 18 19 19 19 20 20 21 20 20 20 20 20 21 20 17 16 17 15 14 17 18 17 17 16 16 17 17 15 16 17 16 13 11 14 15 11 8 8 9 9 8 7 6 6 5 5 6 6 7 7
17 17 17 17 18 18 18 18 18 18 18 18 18 19 19 19 19 18 19 19 19 19 19 20 20 20 20 20 19 19 19 19 19 18 18 18 18 18 18 18 19 20 20 21 21 20 20 20 18 18 21 20 17 17 18 15 15 17 16 16 17 17 16 16 16 15 15 16 16 13 11 12 14 12 9 11 12 9 10 9 6 7 6 5 5 6 7 6
17 17 17 18 18 18 18 18 18 18 18 18 18 19 19 19 19 19 19 19 19 19 19 20 20 20 20 20 20 20 20 20 19 18 18 18 18 19 18 19 19 19 20 21 20 19 20 20 18 19 20 20 17 16 19 16 15 16 15 18 18 16 16 14 14 15 14 14 15 14 10 10 12 11 10 12 12 10 11 11 9 8 7 6 5 5 6 6
17 18 18 18 18 18 18 18 18 18 18 18 18 19 19 19 19 19 19 19 20 20 20 20 20 20 20 20 20 20 20 19 18 17 18 18 18 19 19 19 19 20 20 20 20 19 19 19 18 19 20 20 16 16 18 16 15 15 15 19 18 14 15 16 14 14 13 11 13 13 10 11 10 9 10 11 12 12 12 11 11 11 8 6 5 4 5 6
17 18 18 18 18 18 18 18 18 18 18 18 19 19 19 19 19 19 19 19 20 20 20 20 20 20 20 20 20 20 20 19 18 18 18 18 19 19 19 19 20 20 20 20 20 19 19 18 17 19 20 20 18 18 17 14 14 16 16 17 15 13 15 17 14 12 11 10 12 12 12 12 10 9 10 10 13 14 13 11 11 10 8 6 5 4 4 5
18 18 18 18 18 18 18 18 18 18 18 18 19 19 19 19 19 19 19 20 20 20 20 20 20 20 20 20 20 20 20 19 18 18 18 18 19 19 19 19 20 20 20 21 20 19 19 18 19 20 19 19 18 18 17 12 12 17 17 15 13 13 15 16 13 11 10 12 14 13 12 10 10 11 10 9 13 13 11 9 8 8 6 6 5 4 4 4
17 17 17 18 18 18 18 18 18 18 19 19 19 19 19 19 19 19 19 20 20 20 20 20 20 21 20 20 20 20 18 18 17 17 18 19 20 19 19 19 19 20 21 20 19 19 19 20 20 18 18 19 17 16 15 13 13 16 17 15 13 11 13 14 12 11 10 12 13 10 11 10 12 12 8 9 12 11 8 5 4 5 4 4 4 4 4 4
17 17 17 18 18 18 18 18 18 19 19 19 19 19 20 19 19 20 20 20 20 20 20 20 20 20 20 21 20 19 17 17 17 17 18 19 20 19 20 20 20 20 20 19 17 18 19 19 19 16 18 18 15 16 14 14 15 15 16 15 13 11 13 13 11 11 11 11 10 9 12 12 11 10 8 11 12 10 7 4 3 4 3 4 4 4 3 3
17 17 18 18 18 18 18 18 19 19 19 20 20 20 20 20 20 20 20 20 20 20 20 20 20 20 20 19 18 18 17 17 17 17 18 19 20 19 20 20 20 20 19 18 17 18 18 18 17 16 19 17 14 15 14 16 17 15 15 14 14 14 13 12 13 12 10 10 9 11 13 11 8 8 10 12 11 8 6 5 4 4 4 4 4 3 3 3
17 17 18 18 18 18 18 19 19 19 19 20 20 20 20 20 20 20 20 20 20 20 20 20 20 20 20 19 17 18 18 17 17 17 18 19 20 20 20 20 20 20 19 18 17 17 17 18 15 14 17 16 15 14 13 15 15 12 13 13 13 13 12 12 13 12 10 10 9 12 14 11 8 9 13 13 7 6 6 5 4 4 4 4 3 3 2 3
17 17 18 18 18 18 18 18 19 19 19 20 20 20 20 20 20 20 20 20 20 20 20 20 20 20 20 18 17 18 17 17 17 18 18 19 20 20 19 19 19 19 19 18 17 15 16 16 13 13 16 16 15 14 13 13 12 11 12 14 14 13 13 12 12 11 11 12 10 11 12 10 8 9 14 12 5 5 7 5 3 4 4 3 3 3 2 3
17 17 18 18 18 18 18 18 19 19 19 20 20 20 20 20 20 20 20 20 20 20 20 20 20 20 19 17 17 17 18 17 17 18 19 19 19 19 18 19 19 19 19 18 16 16 16 16 15 17 17 15 15 16 14 11 11 11 12 15 15 15 16 13 11 11 11 13 10 10 12 11 10 12 14 9 4 5 7 5 3 4 3 3 3 3 3 2
17 18 18 18 18 18 19 19 19 19 19 20 20 20 20 20 20 20 20 20 20 20 20 20 20 20 20 18 17 18 18 17 17 19 20 19 19 19 18 18 18 18 18 18 17 16 16 16 17 16 14 15 16 14 13 10 11 13 12 14 15 16 16 12 10 10 12 12 10 11 14 14 13 15 13 6 4 6 6 5 3 3 3 3 3 3 3 2
17 18 18 18 18 19 19 19 19 19 19 20 20 20 20 20 20 20 20 20 20 20 20 20 20 20 19 18 18 18 18 17 18 19 19 19 19 19 18 17 18 18 18 18 17 16 16 16 16 14 12 13 13 12 13 13 12 14 14 13 12 14 17 14 10 11 13 11 9 12 13 14 14 15 12 6 5 7 7 5 3 3 3 2 3 3 3 1
18 18 18 19 19 19 19 19 19 19 19 20 20 20 20 20 20 20 20 20 20 20 20 20 20 20 19 18 18 18 18 18 18 17 16 17 18 18 18 18 17 17 17 17 17 16 16 16 16 15 13 11 11 14 16 15 14 13 15 15 12 12 15 13 10 11 13 11 10 12 13 13 13 14 11 5 4 7 7 5 3 3 3 2 3 2 2 1
18 18 19 19 19 19 19 20 20 19 19 20 20 20 20 21 20 20 21 20 21 20 20 20 19 20 20 18 18 18 17 17 17 16 16 16 16 17 18 18 17 17 17 16 17 16 16 16 13 11 13 13 13 15 16 17 15 12 13 15 14 13 12 12 12 10 10 11 11 12 12 13 13 13 10 5 5 6 6 5 3 3 3 2 3 2 1 1
18 19 19 19 19 19 20 20 20 19 19 20 20 20 20 20 20 21 20 20 21 20 20 20 19 19 19 18 18 17 16 16 17 16 16 16 16 16 17 17 16 15 16 16 17 16 15 14 11 10 13 12 11 14 16 16 15 13 12 13 12 12 11 11 13 10 8 11 11 12 11 11 12 12 11 7 6 6 6 5 4 3 2 2 2 1 1 1
19 19 19 19 19 20 20 20 20 20 20 20 20 20 20 20 20 20 20 20 21 20 20 19 19 20 19 18 17 16 15 16 17 16 16 16 16 16 16 16 14 14 17 17 16 16 14 13 13 16 16 12 11 14 16 14 13 13 12 12 11 10 10 11 12 11 10 10 10 10 10 11 11 11 12 9 5 6 6 5 4 3 2 2 2 1 1 1
19 19 19 19 20 20 20 21 21 21 21 21 21 20 20 20 20 20 19 19 19 19 19 17 17 18 18 16 15 15 15 15 16 16 15 15 15 16 15 14 14 15 18 18 17 14 13 15 16 17 16 13 12 12 13 13 12 12 11 10 10 9 10 10 11 11 9 9 9 9 10 11 11 11 10 7 5 6 6 4 4 2 2 2 1 1 1 1
19 19 19 19 20 20 20 21 21 21 21 21 21 20 21 20 19 19 16 15 15 15 16 15 14 16 16 16 14 15 16 16 17 15 15 15 15 16 15 14 15 15 14 15 16 11 11 16 16 14 14 12 11 10 10 10 9 10 10 9 9 9 9 10 11 10 8 9 10 10 10 10 10 10 7 4 5 6 4 4 3 2 2 2 1 1 1 1
19 19 19 20 20 20 20 21 21 22 22 21 21 20 20 19 19 19 16 14 12 11 14 14 13 14 15 15 14 14 15 17 16 14 15 15 14 17 16 14 17 16 12 10 12 11 12 16 15 12 12 10 9 9 8 9 9 9 10 9 9 9 10 11 11 10 9 9 10 10 10 9 9 8 4 3 5 4 2 3 3 2 2 1 1 1 1 0
19 19 20 20 20 20 20 21 21 22 21 21 21 18 16 16 17 18 17 17 15 12 13 13 12 14 14 14 13 13 14 16 16 14 14 15 15 16 15 13 16 15 11 10 13 15 15 15 13 10 8 8 8 7 8 9 9 10 9 9 10 10 10 11 12 11 9 9 10 10 8 9 8 5 3 2 3 2 1 2 2 2 2 1 1 0 0 0
19 20 20 20 20 21 20 21 21 21 21 21 19 16 15 16 16 17 18 19 17 14 14 14 15 15 15 15 13 13 14 14 15 14 13 14 14 13 13 14 14 13 11 12 14 16 16 14 10 8 7 9 10 8 9 10 10 11 10 10 11 10 10 11 11 11 9 8 9 8 8 9 7 5 4 2 1 1 1 1 2 1 1 0 0 0 -0 0
20 20 20 20 20 21 20 20 21 21 20 19 18 17 16 17 17 17 17 16 17 16 14 14 13 14 15 15 14 14 15 13 13 14 12 13 13 12 12 12 13 15 12 11 12 14 15 11 7 7 8 10 12 11 10 11 11 11 10 11 11 10 10 10 10 9 9 8 7 8 9 10 8 7 5 2 1 1 0 1 0 0 0 -0 -0 -0 -0 0
20 20 20 20 21 21 20 21 20 19 19 18 17 17 17 17 17 18 18 17 18 18 15 14 13 14 14 14 14 13 13 13 13 13 12 11 12 13 13 10 12 16 13 10 12 14 14 9 6 10 11 10 12 12 11 10 10 10 11 11 10 10 9 8 8 8 9 9 7 8 9 9 9 8 4 2 1 0 -0 0 -0 -0 -0 -0 -0 -0 -0 0
20 20 20 21 21 21 21 21 19 19 19 18 17 17 17 18 17 18 19 19 19 18 16 17 16 16 16 14 11 10 13 16 13 12 12 11 11 12 13 11 11 14 12 10 12 13 12 9 8 11 11 11 13 12 10 9 10 10 10 9 8 8 8 8 8 7 8 9 8 8 8 8 9 8 4 1 1 0 0 -0 -1 -1 -1 -1 -0 -0 0 -0
20 20 21 21 21 21 22 20 19 19 19 18 17 17 17 17 17 18 19 20 19 17 16 18 17 16 16 13 10 12 16 16 13 13 12 12 11 11 14 13 12 12 9 10 13 13 12 11 11 11 11 13 13 12 10 9 9 11 9 8 8 8 8 8 8 7 7 7 7 7 7 7 8 7 3 2 2 0 -0 -0 -1 -1 -1 -1 -0 -0 -0 -0
20 21 21 21 21 21 21 20 20 19 18 18 17 17 17 17 17 18 20 20 19 17 16 17 17 17 15 12 11 14 15 13 15 15 12 12 12 11 14 13 12 12 9 11 16 13 11 12 11 10 12 13 12 11 10 9 9 11 9 7 8 8 8 7 7 6 5 6 8 8 7 7 8 8 5 3 3 1 -1 -0 -1 -1 -1 -1 -0 -0 -0 0
20 21 21 20 20 20 20 20 20 18 18 18 17 17 17 17 18 18 20 20 18 17 16 16 17 16 13 13 13 13 13 12 13 13 11 12 13 12 12 11 11 12 9 11 14 12 10 10 9 10 12 12 11 11 10 9 9 10 9 8 8 8 7 6 6 7 6 7 9 8 7 8 8 8 5 4 3 1 -0 -0 -1 -1 -1 -1 -0 -0 -0 -0
20 20 20 20 20 20 20 19 18 18 17 17 17 17 17 17 18 20 20 19 17 16 15 15 16 13 11 15 16 12 12 12 10 11 11 11 12 11 9 8 10 12 11 12 13 12 9 7 7 9 10 10 10 10 9 8 8 9 8 8 9 9 7 5 5 7 8 9 9 8 7 7 7 6 3 2 2 0 -0 -1 -1 -0 -0 -0 -0 -1 -1 -1
19 19 20 20 20 19 19 18 17 17 17 17 17 16 17 18 18 20 19 17 16 16 15 14 13 11 11 13 14 12 12 12 10 11 12 9 10 11 10 9 10 12 13 12 12 12 10 9 9 8 8 8 9 9 8 6 7 8 8 9 10 9 8 7 7 7 8 9 8 7 7 7 7 5 1 -0 -0 -1 -1 -1 -2 -1 -1 -1 -1 -1 -1 -1
18 18 19 19 19 19 19 17 16 17 17 17 16 16 19 19 18 19 17 16 17 15 14 13 11 11 11 11 12 11 11 12 11 9 10 9 8 8 9 9 9 12 14 12 10 12 13 12 10 8 8 8 9 10 9 8 8 8 8 9 8 7 7 7 7 7 7 8 8 7 7 6 7 5 0 -1 -1 -1 -1 -1 -2 -1 -1 -1 -1 -1 -1 -1
18 17 18 18 18 18 17 16 16 17 16 17 17 17 19 21 19 16 15 16 16 13 11 11 10 10 10 12 13 10 10 12 11 10 9 10 10 7 7 7 7 11 13 11 10 11 13 12 10 10 10 9 9 10 9 9 9 8 8 8 7 6 5 5 6 6 7 8 8 8 7 6 7 4 -0 -1 -1 -1 -1 -1 -2 -2 -2 -1 -1 -1 -1 -1
18 18 18 17 17 17 17 16 16 16 16 17 19 19 20 20 17 13 14 15 13 11 10 10 11 12 12 13 12 9 11 12 10 11 11 11 11 10 9 8 8 9 10 10 9 9 12 13 12 11 10 10 10 9 8 9 8 7 7 8 7 6 5 4 5 6 5 6 7 7 6 6 6 3 -0 -1 -1 -1 -1 -1 -1 -2 -1 -1 -1 -1 -1 -1
18 18 18 17 17 17 16 17 16 16 17 18 19 20 20 19 15 14 15 14 11 11 11 8 11 15 14 12 10 8 11 12 11 11 11 10 10 9 9 8 7 7 9 10 9 7 10 12 12 10 9 9 10 8 7 8 8 7 6 7 7 7 6 5 5 5 5 5 6 6 6 6 4 1 -1 -0 -0 -0 0 -0 -1 -1 -1 -1 -1 -1 -1 -1
17 18 18 17 16 16 16 17 16 16 17 18 20 20 17 15 14 14 13 11 11 11 12 12 13 15 16 14 12 10 10 11 11 11 11 9 9 8 8 7 7 6 8 9 8 8 10 12 11 10 9 9 8 7 7 7 9 8 7 7 7 6 6 6 5 5 5 5 5 6 6 5 4 1 -0 0 1 0 0 -0 -1 -1 -1 -1 -1 -1 -1 -1
18 18 17 16 15 16 16 16 16 17 16 19 21 17 13 11 11 11 9 8 9 8 12 16 14 13 15 14 14 13 11 11 11 12 12 10 9 9 8 7 6 6 6 7 8 8 8 10 10 9 11 9 5 6 7 6 8 9 7 7 6 5 6 5 4 4 4 4 5 6 5 5 5 3 0 0 0 -0 -0 -1 -1 -1 -1 -1 -1 -1 -2 -2
17 17 17 16 15 15 15 16 16 16 17 19 17 13 11 10 9 8 7 7 8 9 13 16 13 11 13 13 13 11 10 13 12 11 12 11 10 9 8 8 7 6 5 5 8 7 6 10 10 7 9 9 5 7 9 6 6 8 8 7 6 5 5 4 4 3 3 3 4 5 5 4 5 3 1 0 -1 -1 -1 -1 -1 -1 -1 -2 -2 -2 -2 -3
17 18 17 16 15 15 16 16 15 16 19 19 15 12 11 10 8 6 6 6 8 11 13 14 11 11 11 11 12 10 9 12 12 11 12 12 11 9 7 7 7 6 4 4 7 7 6 9 10 7 7 9 8 9 9 8 7 7 7 7 6 5 4 3 3 3 3 3 3 4 4 4 4 3 2 0 -1 -1 -1 -2 -2 -2 -2 -2 -2 -3 -3 -4
16 18 18 15 16 16 16 16 16 17 19 15 12 11 10 9 8 5 4 5 8 10 12 12 11 12 12 10 10 10 9 10 10 11 11 11 10 9 6 5 6 6 4 4 6 6 6 7 9 9 8 9 10 9 8 8 7 7 7 6 5 5 4 3 2 2 3 2 2 2 2 3 3 2 1 0 -1 -1 -1 -2 -2 -2 -2 -2 -3 -3 -4 -5
15 19 18 15 16 16 16 17 14 12 13 11 10 10 9 9 9 6 4 4 6 8 9 10 11 11 12 11 10 9 9 10 9 10 11 10 10 10 5 2 3 4 5 6 6 6 6 6 7 8 7 9 10 8 7 7 7 7 6 5 4 3 3 3 2 2 2 2 2 0 0 3 3 2 1 -0 -1 -1 -1 -2 -2 -2 -3 -3 -4 -4 -4 -5
17 20 18 15 17 16 16 16 9 6 10 11 9 9 8 8 9 7 5 5 7 7 7 9 10 10 10 10 10 9 9 11 10 10 10 9 10 10 4 -1 -1 1 3 7 6 5 6 5 5 6 7 9 9 5 4 6 6 6 5 3 3 3 3 2 2 2 2 1 2 1 0 2 2 1 1 0 -0 -1 -1 -2 -2 -3 -3 -4 -4 -5 -5 -6
18 19 17 16 16 16 17 16 10 7 10 8 7 7 7 8 9 8 7 7 8 9 9 10 9 9 10 9 9 9 9 10 10 10 10 9 8 6 1 -3 -1 1 4 7 6 4 5 5 5 7 7 8 7 5 4 5 6 6 4 2 2 2 2 2 1 1 0 0 1 0 0 2 3 2 2 1 0 -1 -1 -2 -3 -3 -4 -5 -5 -5 -5 -6
17 17 16 16 16 17 19 19 14 11 9 8 8 8 7 7 8 9 9 9 9 9 11 11 9 9 9 7 8 10 9 10 11 9 8 9 8 2 -2 -3 0 3 5 6 5 5 6 7 7 8 8 8 8 7 6 6 6 6 4 1 1 1 1 1 -0 -1 -1 0 1 -0 -0 2 4 4 3 1 -0 -1 -2 -2 -3 -4 -5 -5 -5 -5 -6 -6
17 16 16 16 14 14 15 14 14 13 10 10 12 10 9 9 7 7 9 8 7 8 10 10 8 8 7 7 8 8 8 10 11 9 7 8 7 3 -1 -2 -1 2 3 2 1 3 6 7 7 8 8 7 7 7 7 7 6 5 4 1 1 0 -1 0 -0 -1 -0 0 0 -1 -0 2 3 3 1 -0 -1 -2 -3 -3 -3 -4 -5 -6 -5 -6 -6 -7
18 19 19 18 13 10 9 7 10 13 12 13 14 10 10 12 9 6 7 8 7 6 8 9 7 7 8 8 10 10 8 8 8 9 9 8 8 4 -1 -2 -1 1 1 -0 -1 2 5 5 6 8 8 7 7 7 7 7 5 4 3 1 1 -0 -1 -0 0 -0 -0 -0 -1 0 1 1 1 1 -0 -1 -2 -3 -4 -4 -4 -5 -5 -6 -6 -6 -7 -8
18 19 17 18 16 14 12 9 10 13 12 13 15 11 11 13 11 8 8 8 7 6 8 8 8 9 11 10 11 11 9 8 7 9 9 7 7 4 -1 -1 -0 0 1 1 0 2 6 6 6 6 7 7 7 6 6 5 3 3 3 1 0 -0 -1 -0 -0 -0 -0 -1 -1 1 1 -0 -0 -0 -1 -2 -3 -4 -4 -4 -4 -5 -6 -6 -6 -7 -8 -9
16 15 10 11 15 16 15 13 11 11 11 11 11 10 11 13 12 12 10 8 7 7 9 11 9 10 10 10 11 11 10 9 9 8 7 6 6 6 3 2 2 1 1 2 1 3 6 7 4 4 5 5 4 4 4 3 2 2 2 1 0 -0 -1 -1 -1 -0 -0 -1 -1 1 0 -1 -1 -1 -2 -2 -3 -4 -4 -4 -4 -5 -6 -6 -7 -8 -9 -10
11 13 8 7 11 11 9 9 9 12 13 11 11 10 12 14 13 11 9 9 10 8 9 13 12 9 8 8 9 11 10 11 11 9 7 6 6 7 7 6 4 2 2 4 3 1 4 6 4 2 3 3 3 4 3 2 2 2 1 0 0 -0 -1 -1 -1 -1 -1 -1 -0 0 -0 -1 -1 -2 -2 -3 -3 -4 -4 -4 -5 -6 -6 -7 -8 -9 -10 -10
14 16 12 10 10 8 6 7 10 14 13 11 13 12 10 13 14 11 8 10 13 11 9 12 12 8 7 7 8 10 10 10 11 9 7 7 7 6 7 7 6 3 3 4 2 1 4 5 3 1 2 4 4 4 3 2 2 2 0 -0 -0 -1 -1 -1 -1 -1 -1 -1 -0 -1 -2 -2 -2 -2 -2 -3 -3 -4 -4 -5 -6 -6 -7 -8 -9 -10 -10 -11
13 13 12 15 14 8 8 9 9 15 16 13 14 13 11 13 13 11 10 8 10 12 10 11 11 8 6 6 8 10 8 7 9 8 6 7 7 7 6 6 5 5 5 3 2 2 4 4 2 1 3 5 4 4 3 2 1 0 -0 -0 -1 -1 -1 -1 -1 -0 -0 -1 -1 -2 -4 -4 -3 -2 -3 -3 -4 -4 -5 -6 -6 -7 -7 -9 -10 -10 -11 -11
11 11 11 16 16 9 9 10 10 14 16 13 12 11 11 12 9 9 12 9 6 8 8 8 10 8 8 9 9 8 7 6 6 5 4 5 5 4 5 4 4 5 5 4 1 1 2 3 3 2 3 6 5 3 3 1 2 3 2 0 -0 -1 -1 -0 -0 0 -0 -1 -3 -4 -4 -4 -3 -3 -4 -4 -4 -5 -6 -6 -7 -7 -9 -10 -10 -11 -11 -11
Height
822 822 823 823 823 823 822 821 821 821 821 820 820 820 820 820 820 820 819 818 817 817 816 817 817 817 817 817 817 817 817 817 815 814 815 820 820 818 816 814 813 811 810 810 809 809 809 809 809 809 808 810 815 817 817 819 821 819 826 832 833 836 835 827 827 830 826 821 822 828 832 827 825 833 837 836 836 837 837 838 838 838 838 837 836 837 839 841
823 824 823 823 823 822 822 822 822 822 821 820 821 820 821 821 820 820 819 818 817 817 817 817 817 817 817 817 817 817 817 817 815 815 818 821 819 818 816 814 812 810 810 809 809 809 809 810 809 809 810 812 817 817 816 820 821 823 832 833 830 831 828 825 824 825 826 822 823 828 833 831 826 829 835 831 831 837 834 834 840 839 838 839 838 839 840 843
824 823 823 822 822 822 822 823 822 822 821 821 821 821 821 821 821 820 819 819 818 818 817 817 818 817 816 816 816 817 817 817 816 818 820 820 819 817 815 813 811 810 809 809 809 809 809 810 809 810 812 814 819 819 816 820 823 826 832 829 825 827 826 826 826 824 825 824 824 827 834 834 830 831 834 830 830 835 830 828 834 835 836 839 839 840 841 843
824 823 823 822 822 823 823 823 822 822 822 822 822 822 822 821 821 820 819 819 818 818 818 818 818 816 815 815 816 817 816 818 821 823 822 820 819 817 815 813 811 809 809 809 809 809 809 810 809 811 812 815 821 822 819 823 825 828 829 823 822 830 826 822 825 825 827 830 827 828 834 832 832 835 833 831 829 826 823 822 823 824 831 837 838 839 840 841
823 823 823 823 823 824 824 823 823 823 822 823 823 822 822 822 821 821 820 819 818 819 818 819 818 816 815 814 817 816 817 824 826 824 822 821 819 818 816 814 812 810 810 809 809 810 809 810 810 812 814 816 820 820 822 829 828 826 825 822 826 832 826 819 825 828 830 833 830 830 830 828 833 835 832 832 825 815 816 819 819 820 826 831 834 837 839 841
823 824 824 824 824 824 824 823 823 823 823 823 823 823 822 822 822 821 821 820 819 819 818 819 818 817 817 816 818 815 819 829 829 824 823 822 819 819 817 815 813 812 812 810 810 810 810 811 811 814 817 819 822 822 824 832 831 825 823 826 829 832 826 822 827 830 832 830 827 829 829 831 833 828 832 832 819 812 816 819 820 822 825 827 831 834 836 839
825 825 825 825 825 824 824 824 823 823 823 823 823 823 822 822 822 821 821 820 820 819 818 818 817 818 818 818 818 817 822 829 828 825 824 821 820 819 817 816 815 813 813 811 811 811 812 813 813 818 819 820 825 826 827 831 831 827 823 825 830 833 828 825 829 830 832 828 827 832 829 830 827 825 834 828 812 814 819 821 821 822 825 828 831 833 834 837
827 827 826 826 825 824 824 824 824 823 823 823 823 823 823 822 822 822 821 821 820 819 818 818 818 818 818 818 819 821 827 829 828 826 824 822 821 820 818 817 816 815 814 813 814 813 813 814 816 822 820 822 827 826 829 829 827 828 825 825 830 832 828 827 830 828 830 830 832 834 826 826 827 830 833 818 808 816 820 821 822 823 826 828 829 832 834 837
827 827 827 826 825 825 824 824 824 823 823 823 823 823 823 822 822 822 822 822 821 820 819 818 818 818 819 819 819 824 831 831 829 827 824 822 821 820 819 818 816 815 815 814 815 813 814 817 819 820 818 824 827 827 830 826 824 828 827 828 828 826 826 827 825 826 831 831 833 829 822 826 832 833 823 809 810 817 820 821 823 824 825 827 829 831 833 836
828 828 827 826 826 825 825 824 824 824 824 824 823 823 823 823 822 822 822 822 821 821 820 819 819 820 819 819 821 829 833 831 829 827 824 822 821 820 819 818 817 816 816 815 815 814 815 816 818 819 819 825 827 829 832 827 827 832 831 829 827 826 828 826 823 827 831 829 832 826 819 825 832 832 814 805 816 818 819 823 823 824 825 827 830 832 834 836
828 828 827 827 826 826 825 825 825 824 824 824 824 823 823 823 822 822 822 822 822 822 822 821 820 821 820 820 825 833 833 830 829 826 824 822 821 820 819 819 818 817 817 816 816 816 816 816 818 818 819 824 826 829 832 831 832 834 831 825 825 826 825 826 825 828 829 826 830 827 822 826 833 829 809 806 819 819 817 822 824 824 826 829 832 834 836 838
829 828 828 828 827 827 826 826 825 825 825 824 824 823 823 823 822 822 822 822 822 822 822 822 821 821 821 822 829 834 832 830 829 826 824 822 821 820 820 819 818 818 817 817 817 816 816 817 817 817 821 826 826 828 830 834 835 834 832 824 821 822 819 825 828 830 829 824 829 829 819 821 827 817 804 811 821 819 819 821 824 827 829 832 834 836 838 840
829 829 828 828 828 827 827 826 826 825 825 824 824 823 823 823 822 822 822 822 823 823 823 822 822 822 822 826 832 833 831 831 828 825 824 822 821 821 820 819 819 818 817 817 817 817 817 817 817 820 825 825 826 830 831 836 835 831 833 830 826 822 818 826 833 831 827 825 830 829 815 807 813 807 803 818 821 818 820 822 827 830 832 834 835 838 840 842
830 829 829 828 828 828 827 827 826 826 825 824 824 823 823 823 823 823 823 823 823 823 823 822 823 822 824 830 832 831 831 831 827 824 823 822 821 820 820 820 819 819 818 818 818 818 818 818 818 820 826 829 831 832 830 833 834 830 830 833 839 832 818 823 833 828 822 828 831 830 819 804 804 804 806 819 820 816 818 823 830 831 833 836 836 839 840 843
830 830 829 829 829 828 828 827 827 827 825 824 824 823 824 823 824 823 823 823 823 823 823 823 823 823 826 831 831 831 830 828 826 825 824 823 821 820 820 819 819 819 818 819 818 819 819 818 819 823 829 833 832 830 828 830 833 837 830 828 842 840 825 824 832 829 822 827 830 828 821 805 803 806 809 820 821 817 818 824 831 831 834 837 837 840 841 844
830 830 830 829 829 829 828 828 828 827 825 824 824 824 824 824 824 824 824 824 823 823 823 823 824 822 828 832 831 830 830 828 828 828 826 824 822 822 821 819 820 819 819 820 819 819 819 819 827 834 832 832 835 832 828 828 831 842 840 832 836 837 835 830 826 832 830 827 829 828 821 807 802 806 812 821 821 820 822 826 831 833 836 838 838 841 843 845
831 830 830 830 829 829 829 828 828 828 826 825 825 825 825 824 824 824 824 824 824 824 823 825 824 823 829 833 832 833 834 833 831 829 827 825 824 823 821 820 819 819 819 819 818 819 819 823 833 835 834 841 845 835 828 834 836 842 847 843 840 842 843 834 823 830 835 829 827 828 824 811 803 806 811 817 820 822 823 826 831 834 836 838 840 842 844 846
831 831 831 830 830 829 828 828 829 828 827 826 826 826 826 826 825 824 824 824 824 823 823 825 824 827 835 836 838 839 837 835 832 830 827 825 824 823 822 821 820 818 818 819 820 822 822 828 832 827 832 843 847 840 836 844 846 844 848 846 846 849 847 840 830 826 829 830 829 830 825 811 806 809 809 815 823 823 823 826 830 833 836 838 841 844 845 847
831 831 831 831 830 829 828 828 828 827 827 827 826 827 826 827 826 825 826 824 827 830 834 837 835 839 844 841 842 840 837 836 834 831 828 826 825 824 824 823 823 822 822 823 823 830 831 828 831 831 837 844 849 852 847 848 850 849 855 855 854 853 847 843 834 826 831 832 829 830 822 811 809 809 811 821 825 823 823 827 830 833 836 838 842 845 847 849
832 832 831 831 829 829 828 827 827 827 827 827 827 827 827 829 830 833 834 832 837 843 845 847 845 846 846 843 843 839 836 836 835 834 830 827 825 824 825 824 825 826 833 836 832 840 841 832 838 843 845 851 855 859 858 858 860 857 858 859 860 859 848 839 831 827 834 831 823 823 818 815 815 812 820 829 825 823 827 828 831 835 837 839 844 847 849 851
832 832 831 830 829 829 828 827 827 826 826 827 826 827 829 830 832 837 840 842 846 847 846 847 847 846 845 845 844 841 840 837 836 836 832 830 826 824 829 830 828 830 844 851 843 843 842 837 846 852 855 860 861 864 865 864 863 860 859 858 859 858 845 833 829 828 834 831 820 818 818 817 817 819 830 835 827 829 834 832 834 837 839 842 846 849 851 853
832 832 831 830 830 829 828 828 827 827 827 827 826 828 831 831 831 833 836 842 847 847 847 847 846 846 845 845 844 844 843 840 837 836 834 831 827 828 836 838 836 841 851 851 842 839 839 843 852 859 866 868 866 869 867 863 863 859 859 859 853 849 840 826 823 828 836 834 819 821 826 818 821 831 837 839 835 838 840 836 836 838 842 846 849 852 854 855
832 832 831 831 831 829 829 828 828 828 827 827 828 829 831 831 832 832 832 839 846 847 848 847 846 847 845 845 845 844 844 845 844 841 838 834 834 839 841 842 843 846 851 849 843 840 841 849 860 867 871 865 861 865 864 860 858 854 856 858 849 847 847 833 822 825 834 836 828 829 826 815 823 833 835 842 843 843 843 840 841 843 846 850 853 855 857 858
832 832 831 831 831 830 830 829 829 829 828 829 829 830 832 832 833 833 834 843 847 846 848 848 848 848 847 847 846 845 846 850 851 848 845 841 842 844 844 849 848 844 852 857 853 847 846 858 869 870 867 861 855 856 858 855 852 854 854 853 848 847 852 845 834 831 831 835 838 833 818 810 820 827 832 845 846 845 848 846 847 850 851 855 857 859 860 860
833 832 831 831 831 830 830 829 830 830 830 831 831 832 833 832 834 832 834 845 848 846 847 847 848 848 848 848 846 848 848 849 852 851 848 847 846 845 847 855 850 842 851 859 855 848 850 865 871 862 858 859 854 852 858 858 857 857 851 850 851 849 853 850 845 843 833 829 836 838 830 818 815 824 839 849 850 851 854 853 855 857 857 859 860 862 862 861
833 832 832 831 831 831 830 830 831 831 832 832 832 834 833 833 834 831 835 848 851 851 850 847 849 849 847 848 848 849 848 847 852 852 850 849 849 848 849 855 854 849 855 859 856 852 855 865 867 858 855 855 851 852 860 863 861 856 852 856 858 856 856 849 847 850 841 833 835 839 843 833 816 823 845 854 855 858 858 859 861 861 862 863 863 863 862 861
832 832 832 831 831 830 829 830 831 831 832 833 833 834 833 833 833 831 838 852 856 857 855 849 850 851 849 852 851 848 851 852 851 851 852 851 851 850 849 854 855 855 862 860 852 854 858 858 858 858 855 851 850 854 859 864 863 854 854 861 858 853 851 847 850 854 851 846 841 839 843 841 826 828 847 853 854 861 862 863 866 865 866 865 864 864 862 861
832 832 831 831 831 830 830 831 831 832 832 833 833 833 833 834 833 833 842 856 862 858 857 854 851 852 853 856 854 853 859 860 853 852 854 852 852 851 851 856 856 856 864 858 847 856 861 855 858 859 854 852 853 857 860 865 862 852 854 862 857 851 850 851 851 854 861 851 836 838 842 837 825 825 842 847 848 861 867 867 869 868 868 866 865 865 863 862
832 832 831 831 831 830 830 830 831 832 832 833 833 833 834 832 832 838 846 859 863 858 859 857 851 855 860 857 858 861 863 863 862 859 856 854 853 852 854 859 860 859 863 859 850 858 863 861 865 862 856 857 857 858 861 863 861 855 857 857 851 849 853 859 855 850 856 844 829 839 844 836 825 823 840 846 847 861 868 869 871 869 869 868 866 865 862 861
832 831 831 830 830 830 830 831 832 832 833 833 833 833 834 833 837 845 853 861 864 862 863 859 858 867 867 858 857 865 865 865 870 865 860 863 858 855 859 861 860 858 859 858 853 858 867 869 870 866 863 864 862 861 862 865 865 858 857 851 841 840 849 861 861 848 837 828 830 841 843 844 838 835 853 859 857 866 869 871 873 869 869 868 866 865 862 860
832 831 831 830 830 830 830 831 832 832 833 833 833 833 833 838 846 851 859 866 866 865 865 864 871 875 873 869 867 869 869 868 874 870 866 871 866 858 860 863 865 859 854 860 859 858 862 863 864 868 869 868 865 862 863 869 868 861 858 851 840 839 844 848 850 849 842 834 839 844 843 847 840 839 862 871 868 871 871 874 876 871 870 868 866 864 861 858
832 832 831 830 830 830 830 831 833 833 833 833 833 833 835 844 852 859 867 867 864 869 871 873 878 878 879 881 877 877 876 871 874 878 876 876 877 878 880 883 883 866 855 865 870 861 855 857 865 869 869 869 864 859 861 863 864 863 860 856 859 862 860 854 851 855 853 842 841 842 844 847 840 845 868 876 874 874 872 875 876 873 871 868 866 863 859 857
834 833 832 831 830 830 831 832 833 832 833 833 833 836 840 844 857 874 878 867 867 878 882 881 882 883 882 875 874 883 883 876 875 879 881 879 882 891 894 895 894 878 867 873 879 871 857 856 864 864 864 868 865 863 865 862 862 867 866 866 877 885 888 885 872 861 853 838 832 837 843 843 838 850 871 874 873 875 872 873 873 873 872 867 864 861 858 855
835 834 832 832 832 832 832 832 833 833 833 833 834 839 842 848 867 883 877 871 879 884 885 887 882 879 879 874 880 888 880 876 880 878 878 878 881 887 891 893 894 891 885 882 888 887 869 857 859 861 864 865 865 871 874 869 869 875 875 873 877 886 898 898 881 871 867 851 838 840 847 845 840 853 871 873 872 872 870 870 871 870 869 865 862 859 856 854
835 835 834 833 832 833 833 833 833 833 832 834 837 841 846 857 874 879 872 877 884 882 884 890 882 871 872 878 889 892 882 877 882 881 879 883 887 891 895 897 898 898 891 883 891 897 882 866 862 866 870 868 867 873 876 872 871 876 879 877 878 882 888 889 881 877 876 864 849 843 846 848 852 866 874 871 870 869 868 868 868 866 864 862 860 857 855 853
836 835 834 834 834 834 833 833 833 833 834 836 838 847 860 871 877 876 878 883 884 883 881 881 878 870 868 875 882 887 887 883 880 879 883 891 895 897 900 901 902 903 897 891 896 897 884 868 862 867 870 870 873 875 876 874 867 871 878 878 880 882 880 883 881 873 870 867 853 843 844 847 854 866 872 869 868 866 867 868 866 865 863 861 860 857 856 853
835 835 835 835 835 834 833 834 833 833 835 835 840 859 877 883 883 884 888 889 890 892 880 869 877 879 874 876 877 879 883 882 880 878 881 890 894 895 901 903 904 905 903 901 899 900 895 876 867 871 865 868 881 877 875 880 872 871 878 877 879 883 883 887 889 883 881 874 851 841 850 850 847 859 868 868 869 869 868 868 866 865 862 860 860 857 856 854
836 836 836 836 835 835 834 833 834 835 836 841 856 875 884 885 889 892 893 893 893 891 878 869 880 887 885 881 880 887 887 877 879 883 882 885 889 895 901 901 904 907 908 906 898 901 906 882 868 878 873 869 880 875 870 878 877 874 878 879 881 887 889 893 899 899 895 885 862 846 851 853 850 858 866 868 872 873 869 867 866 864 862 860 859 857 855 854
835 836 836 838 836 835 835 833 836 836 834 846 865 878 883 886 892 896 896 896 892 885 877 878 886 889 890 888 885 893 895 884 884 888 884 883 888 897 904 903 904 906 908 909 901 901 907 889 871 878 880 871 870 870 871 877 879 877 878 881 885 890 896 901 906 903 896 895 883 859 850 854 857 860 864 869 874 872 869 868 866 863 862 861 859 856 855 854
836 836 837 838 835 835 836 833 836 839 843 860 875 879 884 887 891 898 900 896 892 886 881 885 889 886 888 894 893 895 898 895 892 888 886 890 891 895 906 909 906 907 909 910 906 903 906 901 881 873 877 872 866 872 877 878 879 879 880 888 893 894 895 898 902 901 899 900 895 883 867 857 857 862 865 869 872 871 869 868 865 863 862 860 859 858 856 855
836 837 837 838 836 837 835 836 850 862 866 876 882 883 886 887 888 896 901 899 896 893 889 889 889 887 887 891 895 898 897 895 896 893 890 894 892 891 907 917 912 911 909 903 905 905 903 905 896 885 881 871 866 877 881 878 879 880 885 894 900 901 899 899 901 900 902 901 900 904 889 861 854 864 867 868 870 868 867 866 865 864 862 861 861 859 857 855
837 838 839 837 836 836 835 846 873 883 876 877 883 885 887 887 888 893 897 898 895 894 894 893 891 892 891 890 894 899 895 892 894 894 893 897 895 895 910 923 921 918 911 901 905 909 906 909 908 896 885 873 872 884 887 884 882 883 892 900 902 904 905 908 908 900 902 902 898 901 890 864 858 865 865 867 867 866 866 866 866 864 862 863 862 859 856 855
838 839 839 837 837 837 838 852 876 883 880 886 890 890 891 889 888 891 894 893 892 892 890 890 892 892 892 895 896 896 894 893 893 894 895 898 900 906 918 925 922 918 910 901 904 909 907 911 906 888 878 874 877 885 887 886 884 884 896 906 908 910 909 911 912 909 911 909 901 902 887 861 856 860 860 863 865 866 868 868 867 864 863 864 862 858 855 854
840 840 840 838 835 835 838 848 863 876 884 888 887 887 890 891 889 889 889 889 890 890 886 887 893 892 893 900 897 894 895 891 890 898 900 897 902 913 924 925 918 913 908 902 906 907 900 901 897 885 880 876 873 878 880 880 881 884 896 909 912 913 914 913 916 922 919 906 902 907 890 858 849 854 857 862 865 866 868 868 867 865 864 864 861 857 856 855
840 840 842 841 837 838 847 856 860 869 881 881 878 884 886 886 891 892 890 891 895 894 887 888 895 895 898 902 897 897 899 892 889 898 903 901 904 914 922 924 920 915 912 914 916 910 901 901 899 893 896 897 890 887 883 880 884 887 896 909 911 913 917 914 916 922 915 903 905 909 890 861 850 854 859 863 867 867 867 866 865 864 865 864 860 856 856 856
839 840 842 842 844 848 861 871 867 865 874 872 872 885 884 879 888 896 893 892 896 898 893 893 898 897 896 895 891 891 897 898 897 896 898 898 901 911 922 924 922 918 915 918 920 913 907 908 903 895 898 902 898 891 885 885 892 893 897 908 911 915 919 914 912 914 910 906 902 896 885 868 856 858 863 865 868 869 867 865 863 864 863 861 858 857 856 856
839 843 848 846 847 852 860 870 869 866 871 868 868 881 883 877 884 891 892 892 895 898 895 894 896 891 886 889 887 887 894 901 901 896 898 902 903 911 921 922 920 918 917 918 918 912 905 902 904 904 899 894 893 891 889 894 901 899 901 910 912 913 916 914 913 910 908 908 893 877 878 876 865 864 868 869 870 870 868 866 863 862 861 858 857 857 855 854
843 850 861 856 851 856 859 864 871 871 872 874 878 885 882 877 880 881 885 893 896 896 891 887 890 890 889 891 886 885 892 895 895 897 902 907 907 907 911 915 915 916 917 915 915 914 906 899 908 913 904 899 901 899 896 901 904 901 903 909 912 912 913 915 913 906 907 910 895 877 878 880 872 871 872 872 873 872 868 866 863 861 860 858 858 857 856 853
850 853 864 863 861 869 873 875 876 871 869 875 880 883 879 873 876 882 888 889 887 892 890 880 884 892 894 895 890 886 889 886 886 895 901 904 906 903 901 904 909 915 915 910 913 919 909 900 911 918 910 904 901 896 898 904 902 902 907 909 910 912 913 911 909 906 906 905 894 883 883 883 878 877 876 874 874 872 867 864 863 863 860 859 860 859 856 854
845 845 856 861 866 877 881 881 874 864 869 876 872 877 882 874 873 883 890 886 877 884 890 882 883 895 898 899 894 887 889 887 884 892 900 900 902 902 899 898 903 911 912 910 916 920 910 903 914 923 911 897 891 891 894 898 898 901 908 911 911 911 911 910 908 905 902 896 888 887 890 886 880 879 878 875 872 870 867 864 865 864 862 862 862 860 857 854
840 841 846 849 861 877 878 878 876 863 863 870 867 874 880 873 874 881 885 890 886 882 886 884 885 896 901 900 894 888 892 895 891 893 900 898 897 899 900 901 904 906 907 912 917 915 911 909 917 923 908 888 887 891 890 898 906 908 908 909 910 910 908 908 905 899 895 890 886 891 897 890 882 879 877 874 871 870 869 868 866 863 863 864 863 861 858 854
841 843 844 842 857 878 878 875 876 864 861 869 872 876 878 876 884 883 877 888 895 889 890 890 888 892 892 890 890 891 895 898 898 900 903 901 901 904 903 905 907 905 904 912 918 921 920 911 911 921 906 881 884 893 893 897 895 889 896 904 906 908 904 898 895 891 890 893 895 899 898 888 880 878 875 873 872 872 871 870 867 864 864 864 863 861 857 853
Wind_Speed
7 8 8 8 8 10 11 12 11 10 9 9 8 7 7 7 8 10 10 11 10 9 6 1 3 3 2 1 2 4 6 11 23 30 23 16 22 20 17 18 17 16 12 10 9 5 4 6 5 4 4 3 4 2 2 3 3 4 3 1 2 2 3 5 6 6 3 2 2 2 2 4 3 2 2 0 2 1 1 2 1 3 2 1 2 16 28 26
7 7 7 8 9 11 12 12 11 10 9 9 8 7 7 7 9 10 10 11 10 9 6 2 1 4 4 4 5 5 5 8 22 26 20 21 21 17 17 18 16 11 8 7 8 6 4 3 4 5 5 2 2 2 2 2 3 3 3 1 3 4 4 5 6 5 4 2 2 2 2 4 4 4 3 2 2 1 2 3 2 2 2 1 6 18 25 24
7 7 8 9 10 11 11 11 10 10 9 8 8 6 7 8 9 10 10 11 10 9 8 6 2 3 7 7 7 5 4 7 16 16 20 24 19 17 19 18 15 8 5 5 7 5 4 2 1 4 4 2 1 2 3 3 1 1 2 1 5 5 4 4 5 6 5 3 2 2 1 2 4 3 3 3 2 1 5 5 2 4 4 4 6 15 21 21
7 7 8 9 9 11 11 10 10 9 9 8 6 6 6 8 8 9 10 13 12 8 8 9 7 5 3 6 4 3 2 7 7 11 22 24 18 18 19 18 13 6 4 5 6 5 5 4 4 5 4 1 3 3 2 3 1 2 3 4 5 3 2 5 6 5 4 2 2 2 2 2 3 2 2 4 2 5 8 8 9 10 9 9 6 12 18 18
7 7 7 9 9 10 11 10 10 9 8 7 6 6 6 7 7 8 10 14 15 9 6 10 13 14 11 5 1 3 2 6 5 15 24 22 17 17 17 17 12 8 8 6 5 6 4 4 6 6 4 1 4 3 1 2 2 1 3 4 4 4 2 5 4 3 3 3 3 3 2 3 2 1 3 6 6 7 5 6 10 9 11 13 10 13 16 16
6 6 7 9 10 10 11 10 9 9 8 6 6 6 6 6 6 6 8 12 16 12 4 7 11 15 16 13 8 5 5 3 7 17 23 20 14 15 15 14 12 9 9 7 5 5 3 5 6 4 3 2 2 1 1 2 2 1 4 2 2 3 3 4 1 2 3 5 3 3 3 2 3 3 3 7 13 8 2 3 5 6 13 16 15 15 13 12
5 6 8 9 10 10 10 9 9 8 7 7 6 6 5 5 5 5 6 9 12 14 6 6 5 3 7 9 12 13 9 1 12 20 22 17 11 13 14 12 11 9 8 9 7 3 4 7 5 3 3 2 1 1 1 3 2 1 3 4 1 3 5 3 2 1 3 4 4 2 2 3 4 4 1 6 17 8 1 0 4 8 15 17 14 12 11 13
5 6 8 9 10 9 10 9 9 8 7 6 5 5 4 4 5 4 5 8 10 14 10 6 6 2 2 2 5 9 5 5 17 21 21 14 9 12 12 11 13 11 11 13 7 1 3 5 2 3 2 1 3 2 1 3 2 2 3 4 1 2 6 5 3 2 3 3 1 2 3 4 6 3 0 11 16 5 2 3 7 10 13 14 11 9 10 12
6 8 9 9 9 9 9 9 9 7 6 5 4 4 3 3 4 4 5 7 9 13 12 7 5 3 2 3 6 6 4 10 18 20 20 14 8 10 12 12 15 13 13 12 9 4 2 1 2 3 2 2 3 2 2 3 2 2 3 4 3 4 5 4 3 0 2 2 2 3 6 5 3 1 4 13 9 3 5 5 7 10 10 10 8 9 10 11
7 8 8 8 8 9 9 9 7 6 5 5 4 3 3 2 3 3 5 6 8 11 12 11 8 5 5 4 7 6 6 12 17 18 18 14 7 8 12 11 12 13 9 10 11 8 3 3 4 4 5 3 2 1 1 1 1 2 2 4 5 5 5 2 2 2 1 3 4 5 8 4 1 1 5 7 1 5 7 6 6 10 9 8 6 6 11 13
7 7 7 7 8 8 7 7 7 7 6 5 4 2 2 3 4 3 4 4 6 8 9 12 14 14 17 13 8 4 8 13 18 19 16 13 7 8 13 10 9 12 7 7 10 7 3 6 7 5 2 1 1 1 1 1 2 0 3 6 6 6 5 2 3 4 3 1 5 6 6 2 2 2 8 4 3 5 8 8 7 8 7 6 6 5 8 11
7 6 6 7 7 7 7 9 9 8 6 4 3 2 3 5 6 4 3 2 4 6 5 4 4 6 15 15 6 3 9 15 20 19 15 15 9 7 13 10 7 10 6 6 7 5 4 6 7 6 0 1 1 1 0 1 1 1 4 4 8 8 6 5 3 3 5 1 4 3 5 1 4 8 11 1 4 4 6 7 6 6 4 4 5 4 5 8
6 5 6 7 7 6 9 10 11 9 6 2 2 3 6 7 8 6 3 2 3 5 6 5 3 2 7 7 3 6 11 16 22 18 14 16 10 6 11 10 5 7 6 7 7 7 6 5 7 6 3 4 1 1 2 3 3 2 3 2 5 8 5 3 2 3 6 2 1 2 7 5 6 13 10 3 5 5 5 5 4 4 4 4 4 4 4 7
5 5 7 7 6 6 8 9 9 9 6 2 4 6 7 7 8 7 5 4 3 4 5 7 7 6 6 3 1 9 13 17 25 24 19 16 10 8 11 7 3 5 7 9 9 9 7 5 9 8 3 4 0 1 2 5 4 2 3 2 3 5 5 5 2 4 5 2 2 3 6 9 5 10 7 4 6 7 6 4 5 4 4 4 4 5 3 6
5 6 7 6 5 4 4 6 8 8 6 4 5 6 5 6 7 7 7 7 5 3 2 3 3 4 6 3 0 9 16 19 27 29 24 18 10 11 13 6 4 6 7 8 8 9 7 5 8 6 1 3 3 3 4 4 4 3 3 3 3 2 6 8 3 1 2 2 3 3 6 10 6 6 4 3 5 6 6 4 5 4 5 4 3 5 3 5
5 6 6 5 4 3 5 6 7 11 15 13 9 5 1 2 3 6 7 7 8 6 5 4 4 4 6 1 4 10 14 17 23 27 24 18 9 10 15 5 2 2 4 7 6 5 9 7 5 2 1 5 5 4 4 4 4 3 3 4 5 4 6 8 3 1 1 0 3 1 5 10 7 4 3 2 5 5 4 4 5 5 5 4 3 4 4 5
6 6 6 5 5 5 5 5 8 11 17 20 20 16 12 7 2 1 2 1 5 5 7 9 6 5 6 4 5 7 11 13 19 26 26 18 9 11 14 5 3 4 3 5 9 4 8 7 1 1 4 5 2 3 6 5 5 4 3 2 4 4 5 8 5 2 2 1 2 2 6 13 13 8 6 3 5 5 4 4 5 5 4 4 4 4 5 6
5 5 6 7 7 7 6 5 6 5 7 10 13 15 18 18 13 9 4 3 1 3 5 12 10 5 4 7 4 9 15 13 17 27 28 20 10 10 13 7 5 7 3 3 8 7 6 4 2 2 5 5 3 6 5 2 3 4 4 4 4 4 3 7 8 4 3 1 4 4 8 16 16 11 8 4 2 4 4 4 5 5 5 5 5 5 5 6
4 5 7 8 8 8 7 4 3 5 3 1 2 3 5 9 14 20 22 14 5 4 2 6 7 4 2 5 6 14 14 8 14 26 30 24 12 6 11 10 6 8 7 3 6 6 4 4 5 5 4 5 3 3 2 4 5 5 5 4 5 7 6 8 11 7 2 4 5 5 11 13 14 13 7 6 2 4 3 3 4 4 5 5 5 5 5 5
3 5 7 8 9 9 8 6 2 5 5 4 3 3 3 2 5 9 16 16 7 4 4 2 1 2 2 4 9 17 10 3 11 24 33 27 13 6 9 10 7 7 7 2 4 4 4 5 5 3 4 4 4 3 3 3 4 3 4 3 5 7 8 9 11 7 2 3 5 6 10 12 12 13 7 6 3 1 1 1 3 4 5 5 6 6 5 5
3 5 8 9 9 10 9 8 6 2 5 4 3 1 1 2 4 1 2 7 2 3 5 1 1 0 3 3 9 14 5 2 7 19 33 25 9 6 7 7 8 7 5 3 4 3 5 7 4 4 4 3 3 2 4 2 1 2 3 5 5 5 9 11 10 7 4 2 6 5 12 13 10 8 6 6 5 6 5 1 3 4 5 4 6 7 5 4
3 5 8 10 9 9 10 8 8 5 2 1 4 6 3 4 8 8 5 4 2 4 4 1 2 3 3 1 8 10 3 4 8 16 31 24 9 6 4 6 7 3 6 4 3 5 6 4 5 4 1 2 4 3 3 1 1 2 2 4 6 4 8 9 6 2 3 4 9 9 12 12 7 4 6 7 5 4 6 2 3 4 5 5 6 6 5 5
3 6 7 9 8 7 9 8 6 5 6 8 10 9 7 8 9 7 5 6 1 3 3 4 4 5 5 2 9 10 5 5 5 11 26 20 7 4 3 6 6 2 6 6 5 4 3 2 4 2 3 2 3 3 3 3 1 2 3 3 6 5 5 6 5 4 4 5 8 9 10 7 3 3 5 7 5 5 8 7 6 5 6 7 6 6 5 6
4 6 6 7 8 6 6 7 6 7 9 12 13 11 9 8 6 4 4 4 2 2 1 1 2 2 3 2 11 8 4 3 0 7 19 13 4 2 4 4 4 5 5 4 5 4 1 4 1 3 3 2 3 5 4 4 5 5 4 3 6 7 4 7 11 12 10 3 2 8 9 4 2 3 4 5 5 8 9 9 10 9 8 8 8 7 5 5
4 5 6 6 8 6 3 5 7 8 10 10 11 9 8 5 2 2 4 3 3 3 2 1 2 3 2 3 11 5 3 2 1 4 12 10 4 2 3 1 2 6 5 1 5 3 1 2 1 3 4 4 4 4 3 3 5 6 5 4 5 9 9 12 13 12 9 3 2 7 6 4 1 3 4 5 6 9 8 9 11 8 8 8 7 6 4 2
5 4 5 6 7 7 2 2 4 6 5 5 7 5 4 3 1 2 3 5 3 4 4 3 1 6 6 5 9 3 3 4 1 3 9 9 5 2 3 3 2 4 3 0 3 1 2 2 2 3 4 5 6 3 1 2 5 6 3 2 4 8 11 14 13 7 4 4 3 4 1 4 4 4 4 4 7 10 8 9 9 7 8 6 4 3 1 1
5 4 5 5 6 7 2 2 2 3 2 2 4 3 1 2 2 2 3 5 4 2 3 4 2 6 7 7 9 3 3 8 4 6 11 10 6 1 4 6 3 2 2 2 3 1 2 5 6 5 5 6 6 4 2 1 4 5 4 2 8 12 13 13 10 4 2 4 5 2 2 3 4 2 1 2 7 9 8 8 8 6 6 4 2 2 2 4
5 5 5 5 6 6 4 3 2 2 3 3 4 2 1 2 1 2 5 4 3 1 1 3 3 5 6 7 10 7 2 7 2 6 14 10 7 3 4 4 1 3 3 4 4 3 2 5 6 5 5 5 3 3 3 2 1 6 5 6 10 12 11 9 7 5 2 3 4 3 2 3 5 2 1 1 4 7 7 6 6 5 4 2 3 6 7 9
5 5 5 5 4 4 4 4 3 4 4 4 4 3 2 1 1 3 6 3 2 1 1 2 3 5 7 6 8 5 3 5 3 7 13 11 10 7 4 1 3 2 3 3 3 3 1 1 1 2 4 2 3 6 4 3 2 8 8 8 9 7 3 3 4 4 2 3 2 5 3 3 7 4 2 2 3 3 4 4 4 3 2 2 6 10 11 10
7 6 6 5 2 1 3 4 5 5 4 4 4 3 2 2 4 5 3 1 1 2 1 3 3 4 8 7 6 6 5 4 3 6 8 6 10 8 3 2 4 5 3 4 2 3 3 1 1 2 2 2 4 6 3 4 4 7 7 8 7 2 2 2 2 2 3 2 3 4 2 2 7 3 2 3 3 1 3 4 5 4 4 5 9 11 11 10
9 9 8 5 1 1 1 4 5 5 4 5 4 2 1 2 5 7 2 1 1 3 3 4 3 4 8 6 4 6 5 5 5 6 6 4 7 9 6 3 4 4 5 6 5 7 5 2 1 1 1 1 1 4 2 1 2 5 5 6 8 4 2 3 3 4 3 4 3 3 1 2 7 3 3 4 4 4 5 5 6 7 8 9 9 10 10 10
11 11 10 7 4 3 4 5 5 5 4 4 3 3 3 2 3 3 1 3 2 2 2 1 3 4 5 3 2 5 4 5 5 4 3 4 7 8 6 4 3 5 6 5 6 7 3 0 2 2 1 1 2 3 3 3 4 6 5 7 9 7 6 5 5 4 2 5 3 3 7 5 4 2 3 4 5 6 5 4 5 7 10 10 11 11 10 10
13 11 9 9 7 7 9 7 5 4 3 3 3 5 7 5 1 1 3 3 1 2 1 1 3 3 2 3 4 5 2 3 5 4 2 3 6 4 3 3 4 3 3 3 5 6 4 3 4 3 1 1 4 5 5 4 5 7 5 5 6 5 5 6 6 6 6 8 8 8 6 3 2 1 3 4 3 3 3 4 4 4 7 10 11 10 10 11
13 12 10 10 8 7 7 5 4 4 3 3 4 4 6 4 1 1 2 3 1 3 1 1 4 4 3 3 3 4 2 2 4 4 4 4 4 3 3 6 7 3 0 2 3 3 4 5 3 3 2 2 5 5 1 1 2 3 1 3 4 2 2 4 5 6 9 12 11 7 0 2 6 3 3 4 3 3 1 3 4 4 6 9 10 10 11 12
8 12 13 12 10 6 4 3 3 3 3 5 6 5 4 2 3 2 2 4 1 2 2 0 3 4 3 3 3 2 1 2 3 4 5 4 3 2 3 4 6 4 2 2 1 1 2 5 5 2 2 2 4 1 1 2 1 2 2 4 3 1 2 3 5 5 8 10 8 3 1 3 1 2 3 2 2 1 2 5 8 9 10 11 12 12 13 12
4 8 12 14 12 8 2 2 2 2 3 5 7 5 2 4 2 3 3 1 0 0 2 2 4 5 4 4 4 3 1 1 2 3 3 2 1 1 1 1 3 4 3 2 1 2 2 5 7 5 3 3 4 1 2 3 1 1 3 3 4 1 4 1 5 5 6 9 6 1 3 4 1 2 0 1 2 5 7 9 11 12 14 14 12 13 13 12
4 4 8 14 14 9 4 2 2 3 4 7 7 3 2 3 2 3 3 0 0 2 3 1 2 3 2 3 4 6 4 2 3 4 2 1 1 2 2 1 1 2 1 1 1 1 1 5 7 4 2 1 2 2 3 3 2 3 4 4 3 1 4 2 4 5 6 8 6 4 8 8 4 2 2 1 5 9 10 10 12 13 14 14 13 13 13 13
3 1 4 12 14 8 5 3 2 4 6 7 5 3 2 1 1 2 2 1 0 2 5 3 0 1 1 1 3 6 5 3 4 4 1 1 1 2 2 1 1 1 2 1 0 1 1 4 6 1 2 6 1 5 3 4 3 4 2 2 2 3 3 3 2 4 6 8 9 10 11 7 3 3 2 3 6 9 11 11 13 15 15 14 13 13 14 12
2 1 2 11 14 8 5 2 2 5 7 6 3 2 1 1 1 1 1 1 1 3 3 1 0 2 2 2 1 3 3 2 2 3 2 2 2 2 3 1 1 2 2 1 1 1 1 1 4 3 4 5 3 3 1 4 5 4 2 3 3 1 2 0 1 1 2 5 9 13 12 5 1 2 3 4 6 8 11 13 14 15 15 14 12 13 13 10
1 1 1 11 13 6 5 5 5 7 6 4 3 2 1 1 1 1 1 1 1 2 2 2 2 2 0 1 0 1 2 2 1 2 1 1 1 1 2 1 1 3 3 2 2 1 1 1 3 5 4 3 3 1 2 2 2 5 3 4 5 1 2 2 1 2 2 3 7 10 11 6 1 1 2 3 5 8 12 16 16 15 16 14 13 15 14 9
3 2 2 13 13 2 3 9 7 5 4 3 2 2 1 1 1 1 2 1 1 0 1 4 3 2 1 1 1 1 1 2 1 1 1 1 2 2 1 1 0 2 2 3 2 0 1 1 3 5 5 3 2 2 3 4 2 3 2 2 3 2 2 4 4 1 3 1 4 6 9 8 2 1 2 0 5 10 15 18 16 15 16 14 15 18 14 9
4 2 3 13 9 2 6 7 3 2 4 3 1 1 1 1 2 1 1 1 1 1 2 3 2 2 2 1 1 2 1 1 1 1 0 1 1 1 1 1 1 2 1 1 1 1 0 2 1 4 5 5 4 2 1 2 5 5 3 2 2 2 4 3 3 4 2 3 4 5 8 7 0 2 3 1 8 13 16 18 16 14 13 14 18 19 11 9
3 3 3 13 5 4 9 6 2 4 4 1 0 1 1 1 2 1 0 1 1 0 2 1 1 1 1 2 1 2 2 1 1 1 1 2 1 1 1 2 2 2 1 1 1 0 1 2 1 5 5 3 2 2 1 2 5 4 3 3 3 2 2 5 4 3 3 4 3 5 9 6 0 1 3 6 12 14 14 15 15 13 10 13 19 16 10 12
2 3 3 12 5 4 5 4 2 3 1 1 2 2 2 1 2 1 0 0 0 2 2 1 1 1 1 2 2 2 2 1 1 1 1 2 2 0 1 2 3 1 1 1 0 1 1 1 2 4 6 5 4 4 3 2 2 2 2 2 3 4 2 1 0 2 1 4 5 7 9 8 7 9 11 12 14 16 14 13 14 12 10 14 18 15 12 15
2 1 2 10 12 8 4 3 6 5 3 2 4 2 2 2 1 1 2 1 0 2 2 1 0 1 2 2 2 1 0 1 0 1 1 1 2 1 2 2 3 1 1 1 1 1 1 0 2 4 4 6 6 6 6 6 6 2 2 3 4 4 3 1 0 1 2 4 5 6 9 14 16 16 15 15 15 16 16 14 12 9 10 14 16 13 12 13
2 2 2 6 10 9 3 1 5 6 5 4 4 1 1 2 0 0 2 1 0 1 2 1 1 1 2 2 2 1 1 2 2 1 1 1 3 1 1 2 2 0 1 2 2 2 2 0 2 5 4 5 7 9 10 7 7 7 4 4 4 2 2 2 1 1 5 8 6 6 11 19 22 19 17 17 16 15 16 17 14 9 11 14 13 11 13 13
2 2 1 2 4 5 5 4 5 4 3 4 3 1 2 1 1 1 1 0 1 1 1 1 1 2 1 2 2 0 1 2 3 1 1 1 3 2 1 1 1 2 2 1 1 3 4 1 2 5 7 9 9 12 13 9 7 9 5 1 3 4 4 4 1 5 6 7 9 12 16 20 21 18 16 17 17 15 16 18 15 11 14 15 11 13 17 17
1 2 1 1 1 2 3 3 3 5 4 3 3 1 1 1 1 1 1 1 1 0 1 1 2 2 1 2 2 1 1 2 1 1 1 1 3 3 2 1 2 3 1 1 2 3 4 2 3 3 6 10 10 13 13 8 6 4 1 1 1 4 3 1 5 7 5 5 12 18 20 19 18 15 16 17 16 15 16 16 14 15 17 15 13 15 18 19
2 3 1 2 3 3 1 1 3 6 5 4 3 1 3 4 3 3 1 2 2 1 0 1 2 2 1 2 4 3 1 1 1 3 2 2 2 1 1 0 2 2 1 2 3 2 3 2 2 2 6 10 11 12 9 5 4 2 2 2 2 3 6 6 7 8 8 10 14 17 19 17 13 11 15 16 14 14 16 16 16 18 18 14 14 17 18 19
2 3 2 3 4 2 1 2 3 5 4 3 2 1 3 5 4 2 1 2 1 1 1 1 2 2 2 3 4 3 4 5 3 3 4 3 2 2 2 2 2 1 3 2 1 1 1 2 1 1 5 9 8 7 5 4 5 4 3 3 4 4 5 6 5 6 8 11 14 14 14 13 9 9 14 15 13 14 17 19 19 18 14 12 15 17 18 19
3 4 6 6 4 2 2 2 2 4 2 1 2 3 3 4 5 3 2 0 1 2 2 3 4 2 1 2 3 3 5 6 5 5 7 5 2 2 2 2 4 1 3 1 1 3 2 2 2 5 4 7 3 4 8 3 2 3 3 4 4 4 4 4 4 6 10 14 15 11 8 8 8 12 15 15 16 17 17 19 19 15 11 12 15 16 17 20
6 4 4 6 4 2 1 1 2 3 2 1 2 3 2 3 3 2 2 0 1 1 2 5 6 4 1 2 3 3 4 6 5 4 5 4 2 2 1 2 4 3 1 3 1 2 2 1 2 3 3 6 1 8 13 4 6 1 4 4 4 4 6 6 7 10 8 6 6 6 6 8 12 15 16 17 18 17 15 16 15 12 11 13 15 15 17 19
Wind_Direction
49 51 48 41 30 24 21 19 17 13 17 22 25 30 25 21 16 19 23 26 31 32 36 88 167 173 192 239 317 328 338 15 34 36 34 8 353 355 351 348 346 344 353 5 23 50 54 37 21 49 76 45 19 335 18 26 40 52 75 106 266 215 200 194 190 200 189 268 279 243 214 186 230 209 173 258 30 43 275 304 302 333 350 306 146 146 150 154
46 44 43 37 27 23 20 16 12 12 19 22 26 28 22 19 17 21 22 24 31 33 42 85 186 221 249 267 273 312 319 2 29 30 17 1 360 359 353 351 347 345 0 17 31 48 69 16 359 58 59 51 347 335 45 9 39 82 120 157 237 204 214 202 183 198 197 222 223 234 218 195 216 169 148 223 268 336 237 272 352 350 345 73 136 144 150 156
40 37 40 35 28 20 13 9 10 15 19 22 26 23 19 17 18 23 23 23 29 39 58 73 45 271 259 262 266 288 301 15 29 13 357 -0 0 358 356 351 349 356 17 30 33 42 98 112 94 82 51 66 345 346 45 9 8 140 131 234 243 212 242 232 195 208 209 189 169 222 185 200 235 152 146 211 243 251 224 228 184 219 204 165 159 152 156 160
42 38 36 28 22 12 4 6 11 16 17 19 20 16 15 14 21 27 30 31 33 51 70 66 52 11 290 240 244 262 324 39 27 340 348 356 357 359 359 356 1 23 49 45 42 52 104 104 77 75 64 54 335 14 56 340 339 144 151 209 230 176 267 244 205 214 206 173 157 152 111 269 246 162 177 167 192 255 237 221 204 209 182 166 181 164 161 160
43 37 26 17 11 2 2 7 10 13 12 12 9 8 10 15 27 33 41 40 36 55 89 72 66 55 57 83 170 233 51 52 339 336 349 351 356 2 2 9 22 45 47 48 56 65 94 67 54 52 51 43 340 16 61 308 61 148 218 214 194 136 246 257 208 198 167 118 94 111 168 245 171 183 200 166 216 243 225 220 214 202 170 168 174 165 161 157
37 23 12 6 1 -0 4 7 8 10 7 3 1 3 11 22 34 40 47 39 32 42 94 112 84 66 61 68 75 77 91 91 320 338 345 346 357 4 5 15 32 43 42 56 65 66 60 38 52 52 39 53 358 12 243 318 35 267 279 297 226 168 225 274 25 190 154 117 134 164 207 168 123 264 215 185 231 231 152 224 212 181 168 164 159 159 160 156
24 8 2 359 -0 3 8 9 8 7 1 357 354 1 17 32 40 46 41 30 28 30 51 154 158 71 55 61 64 60 83 97 333 340 341 346 356 2 9 15 27 39 44 46 39 69 72 39 57 116 78 40 251 168 291 317 24 151 265 313 300 193 224 271 7 211 159 150 207 186 171 164 186 247 75 217 239 231 103 189 148 148 152 152 153 160 162 154
9 4 360 359 5 10 14 12 5 1 353 352 356 7 28 45 45 47 38 34 32 24 38 138 191 217 23 35 68 55 58 339 340 343 341 346 358 4 11 18 26 35 45 40 25 103 91 46 92 153 77 341 191 142 0 325 17 126 235 294 331 222 249 281 302 233 169 195 219 135 212 223 204 197 167 247 248 227 142 114 124 134 141 152 159 159 156 150
9 4 2 5 13 17 14 5 358 356 354 4 16 29 47 47 45 48 47 47 38 28 39 90 145 144 66 63 91 70 359 341 345 346 346 347 359 7 11 22 25 30 45 43 36 54 62 70 186 180 149 168 156 114 346 341 316 218 230 288 286 280 296 301 283 219 159 214 132 176 253 260 235 264 257 256 257 164 130 118 134 142 148 162 160 156 155 149
11 6 9 16 21 16 6 3 9 21 32 46 52 64 60 30 44 58 65 62 44 32 39 70 92 89 80 67 74 64 337 344 354 355 354 352 358 5 10 21 22 26 39 39 41 48 59 173 178 146 133 124 112 91 327 354 205 209 257 272 262 289 305 302 308 349 276 217 162 215 263 272 307 328 258 268 246 129 124 126 157 156 159 162 151 151 150 150
13 13 21 25 22 11 13 35 51 57 60 68 71 70 39 33 56 69 82 70 48 36 42 77 85 72 74 72 75 62 346 351 1 4 5 1 1 7 14 20 18 22 27 35 39 39 79 158 147 123 121 96 114 46 309 206 132 122 324 291 291 323 311 323 12 343 327 232 184 213 259 273 48 265 246 262 121 148 136 150 174 164 159 146 136 132 142 147
21 28 32 29 20 22 54 68 65 61 59 70 68 60 56 56 61 69 93 59 31 32 22 66 81 53 64 65 73 42 2 6 7 9 14 10 10 16 15 11 13 24 26 47 36 32 96 146 117 91 271 147 136 352 180 142 60 339 10 323 309 350 344 337 34 351 347 322 193 209 281 249 146 237 248 183 129 146 136 164 172 154 139 121 131 122 128 129
36 41 37 32 33 62 79 69 58 47 40 70 87 86 81 68 58 58 75 37 18 38 37 48 50 20 58 65 66 27 13 12 14 15 14 11 20 28 13 2 7 34 43 65 53 52 97 135 101 103 122 100 99 309 115 44 29 292 18 41 319 353 340 327 59 330 341 334 157 24 299 281 199 241 254 131 141 138 144 177 151 138 130 124 135 120 115 109
55 47 39 45 61 85 78 56 42 25 15 74 117 107 87 66 53 49 56 48 35 50 55 64 72 78 73 112 177 21 11 13 20 18 8 6 19 23 16 16 46 59 59 68 65 66 95 126 94 96 99 76 89 313 22 10 21 304 334 63 11 354 294 307 343 325 346 340 41 65 277 285 253 256 264 155 162 154 171 183 141 148 136 133 140 126 111 104
64 48 47 60 74 77 46 20 22 26 35 78 130 126 86 57 50 55 67 60 58 70 64 55 46 73 77 93 258 3 4 14 18 14 6 4 15 11 4 25 87 77 73 63 69 73 75 113 83 65 316 20 47 35 4 348 13 19 349 329 349 345 286 310 317 298 330 304 29 86 256 286 271 264 291 155 177 178 185 173 148 161 142 141 145 127 109 107
62 51 54 61 53 26 354 7 49 71 72 75 89 100 65 38 52 74 76 58 58 61 58 28 347 67 95 13 331 356 1 8 7 6 7 7 16 2 354 8 77 55 96 54 58 71 41 59 75 48 0 27 45 48 28 12 351 17 30 313 300 314 312 320 310 210 264 211 16 48 251 288 276 267 310 171 183 191 185 173 160 160 146 147 147 126 118 117
61 54 52 41 30 18 8 50 93 90 79 80 78 73 67 61 65 199 274 332 48 43 51 33 7 86 80 349 349 352 341 345 355 2 8 10 11 1 2 13 335 337 158 50 34 28 18 43 96 311 51 42 52 53 36 15 328 329 22 319 276 288 304 313 298 280 43 102 289 261 241 272 277 286 301 247 185 182 196 196 168 157 155 154 143 126 126 126
62 54 46 33 28 28 29 77 132 128 92 85 74 70 67 63 68 67 52 184 236 343 35 19 20 95 30 356 1 319 317 327 353 3 7 10 5 4 18 26 348 4 63 38 25 22 2 27 75 37 33 17 27 54 42 325 278 288 309 305 297 287 256 285 286 290 13 309 247 262 262 272 283 292 302 324 121 172 213 198 164 157 156 155 139 128 132 125
64 52 42 31 29 30 33 62 163 196 185 152 15 20 37 48 60 59 54 66 68 37 58 344 13 112 298 322 319 321 319 327 1 5 5 4 356 358 21 25 26 33 42 17 5 18 8 23 42 30 1 344 357 85 141 213 207 242 270 259 283 293 273 267 273 278 0 304 259 242 262 277 295 302 326 3 40 182 217 165 148 159 154 151 134 127 131 120
64 47 37 30 29 29 33 47 66 207 211 234 254 323 334 6 37 34 35 49 69 77 101 262 357 105 310 303 325 340 345 1 17 9 4 359 345 355 12 10 30 47 44 350 317 0 57 55 35 334 287 286 271 205 170 176 182 238 272 260 268 278 286 280 274 282 45 311 265 231 268 285 299 308 346 359 344 68 345 141 142 156 151 144 128 125 128 118
47 37 36 31 29 29 34 45 45 132 209 242 236 36 167 152 72 112 353 40 51 47 73 174 184 60 299 295 337 353 6 358 14 9 5 1 352 12 3 5 33 30 6 287 275 338 60 59 6 281 243 261 292 172 141 119 159 259 271 294 295 266 280 281 275 297 30 344 287 298 305 301 306 324 5 359 1 23 346 276 153 146 136 122 120 122 119 102
23 30 38 32 29 31 34 42 45 63 126 132 110 95 120 142 112 135 140 84 25 12 52 49 44 357 302 284 350 -0 43 358 351 0 3 5 19 29 1 29 53 18 335 346 350 1 44 49 319 302 159 84 39 81 112 82 217 261 282 316 310 302 303 289 257 272 45 331 308 329 319 307 324 15 38 15 9 8 342 351 126 133 118 105 112 113 100 82
18 30 34 29 29 33 34 43 53 66 90 103 101 98 104 109 121 135 106 92 60 352 22 26 48 0 343 29 359 5 60 29 345 346 357 4 22 48 67 37 39 12 353 21 48 38 39 334 306 11 95 94 22 26 52 28 353 293 314 323 299 316 339 310 287 297 317 297 298 320 313 307 1 65 55 24 16 18 12 34 59 73 91 95 92 86 81 78
24 29 24 20 25 28 36 49 63 81 92 101 98 102 116 111 121 123 84 87 49 353 14 15 139 55 0 350 353 7 94 55 27 333 354 9 13 31 73 50 30 23 4 33 75 79 7 280 258 68 62 68 347 353 42 21 342 309 285 261 284 311 310 277 294 310 316 313 329 337 324 316 43 47 25 12 22 31 26 41 51 54 67 74 72 66 69 83
26 22 13 10 16 19 45 55 62 86 92 97 101 106 112 111 137 109 85 78 10 324 341 355 151 32 348 324 352 6 143 50 99 321 351 15 6 6 51 58 66 19 339 36 73 67 333 264 146 39 3 38 29 358 31 22 344 319 283 227 264 303 296 283 301 322 328 329 32 14 348 301 332 46 23 359 30 39 32 45 53 54 59 64 70 67 68 87
21 12 4 1 10 16 39 72 67 98 93 86 114 122 105 103 115 87 88 69 14 311 347 8 107 2 346 337 344 4 101 355 306 2 13 17 1 103 65 348 39 17 320 116 70 72 346 348 77 46 352 25 42 20 333 32 4 327 272 210 276 293 292 294 308 326 323 295 318 32 70 263 310 12 13 16 53 51 43 50 52 50 55 60 63 61 85 12
13 2 354 353 6 14 24 121 95 112 107 112 150 151 123 120 101 63 63 46 3 299 346 335 329 3 349 336 345 71 83 321 309 28 18 11 349 69 64 8 5 343 295 89 35 350 327 350 15 32 29 33 33 2 289 111 9 303 245 317 309 298 293 296 305 293 256 299 322 20 138 246 293 325 329 45 69 60 51 48 48 50 53 61 57 8 307 324
6 350 343 345 356 13 39 94 97 99 125 162 174 171 161 154 166 46 74 70 342 321 30 312 321 357 345 347 8 73 91 320 29 357 347 11 11 25 68 36 29 277 293 75 35 311 304 0 0 11 32 36 12 304 263 158 337 276 280 311 292 283 287 291 298 280 269 351 335 335 29 298 288 291 323 22 77 69 59 49 44 45 32 31 6 340 327 323
0 341 336 337 342 15 53 81 95 108 134 158 153 154 166 145 41 57 77 106 323 352 180 321 346 338 345 3 14 45 21 358 69 322 339 20 11 16 88 115 124 156 303 67 73 293 312 346 259 90 58 16 283 270 256 173 240 282 300 304 281 268 283 307 301 285 316 54 301 298 18 347 304 320 13 359 57 68 71 70 46 32 0 342 343 338 330 321
3 352 346 334 329 37 65 80 96 116 125 136 144 152 155 63 59 65 58 168 347 325 263 17 12 334 3 21 358 4 23 5 341 332 360 18 343 5 101 212 95 101 347 18 50 307 336 299 220 104 107 230 265 280 263 178 239 307 320 316 311 301 95 60 351 345 8 12 265 262 96 23 308 315 70 343 348 94 101 70 27 359 343 338 337 334 328 321
18 14 5 354 0 185 107 95 105 125 122 122 138 122 77 27 62 89 101 258 331 328 1 22 353 8 30 40 348 349 14 343 340 11 13 355 350 16 45 9 26 50 12 14 351 330 359 27 331 339 239 217 287 291 316 148 303 342 340 335 345 348 29 16 3 41 13 305 264 228 216 308 299 301 75 13 19 84 92 61 24 358 345 339 334 328 323 318
33 26 20 28 69 105 112 125 127 122 120 127 118 64 75 31 27 95 272 320 340 327 18 339 316 15 26 36 355 335 342 336 1 53 18 9 35 35 37 24 348 359 9 11 347 340 6 34 316 321 289 357 349 308 337 13 6 6 4 8 10 355 350 345 339 9 301 267 271 297 303 302 277 267 88 67 64 85 95 81 37 356 343 340 332 323 319 316
46 36 33 47 71 92 99 117 127 120 134 127 75 50 76 81 31 211 273 327 5 327 22 229 311 354 354 11 4 332 345 347 354 31 25 39 59 46 27 23 22 27 350 345 359 353 337 308 336 5 320 352 42 17 350 342 359 6 12 31 28 2 339 319 315 328 303 290 309 321 305 284 300 340 118 122 126 125 107 75 40 338 328 331 325 318 318 322
51 42 44 55 66 83 97 108 113 127 141 86 67 51 65 79 194 196 277 274 270 336 22 186 325 353 45 44 347 318 18 358 345 19 17 32 51 22 358 4 18 46 225 357 16 15 359 326 336 27 332 341 48 45 323 264 346 337 165 110 62 33 306 283 292 312 309 302 312 334 332 252 315 337 139 150 178 180 115 34 4 318 313 325 326 326 328 331
44 35 37 45 49 56 93 125 122 136 130 73 62 65 86 157 223 174 237 259 266 329 321 352 18 25 17 351 330 328 74 311 347 46 28 28 65 25 356 344 355 20 56 33 338 10 24 276 270 311 310 11 50 18 219 109 31 258 147 89 11 313 192 230 243 254 291 299 301 332 146 230 287 82 117 163 220 249 6 353 351 344 338 340 340 337 337 338
355 15 27 32 29 24 44 142 148 148 123 81 64 59 131 191 205 170 198 269 34 337 326 348 42 42 343 320 338 358 29 284 344 46 34 33 108 37 12 289 327 13 52 80 299 344 6 276 290 337 352 79 88 315 323 42 355 300 44 11 307 257 143 237 282 271 305 309 292 304 315 300 74 94 58 241 321 353 354 347 348 345 341 342 340 339 340 338
321 357 25 23 18 17 32 115 154 139 96 77 82 104 205 197 174 184 191 76 84 98 77 66 22 28 339 312 322 330 343 329 351 33 39 16 56 58 48 278 286 9 8 109 222 268 281 283 301 353 342 288 126 92 33 13 21 51 9 320 296 53 107 88 316 310 322 309 289 321 327 323 342 334 277 327 353 349 342 342 344 339 340 341 339 340 338 333
330 42 42 15 9 15 35 62 114 109 84 66 81 141 189 176 172 195 177 132 128 72 78 105 19 30 174 246 308 317 341 353 359 27 47 0 37 98 79 342 287 13 345 21 316 230 149 292 306 357 271 289 29 86 27 335 16 68 24 317 13 355 353 29 334 301 325 317 303 315 321 317 311 307 315 342 345 340 336 340 342 340 342 341 337 337 336 340
7 85 36 2 2 7 16 38 95 71 70 75 100 153 153 174 249 213 173 109 106 88 75 141 196 55 149 176 263 308 349 17 2 26 70 19 15 100 99 32 306 340 341 55 142 232 130 318 298 279 272 307 5 60 358 318 345 20 34 16 24 281 250 305 233 238 339 319 305 311 319 324 243 276 326 346 342 340 340 341 341 341 343 340 338 339 341 352
49 87 321 352 359 6 22 48 65 52 62 109 158 161 90 203 246 319 20 18 90 91 83 168 152 54 214 210 180 303 7 52 39 31 58 20 6 61 69 73 316 324 331 31 93 257 13 112 261 284 310 345 0 34 142 170 341 5 20 3 354 334 213 242 247 118 98 309 308 310 311 318 336 252 317 350 345 344 345 344 343 342 341 341 344 343 343 350
67 80 306 349 353 314 48 51 51 51 82 107 126 133 62 146 156 10 354 17 83 123 128 147 142 104 144 93 80 203 0 39 58 37 6 23 46 20 19 111 287 313 342 34 59 312 346 140 243 298 332 333 286 228 186 184 137 63 57 29 13 6 14 350 324 354 127 269 294 290 294 305 337 132 171 225 338 349 351 347 344 339 338 345 347 341 339 346
67 96 312 349 357 128 77 55 31 44 96 89 70 135 66 82 112 53 345 29 66 97 76 105 127 121 139 132 153 178 139 58 40 62 165 198 59 336 321 92 270 267 163 75 305 249 140 110 246 277 270 272 281 297 280 158 114 96 87 92 103 86 75 70 305 304 321 285 269 257 282 298 339 165 184 341 346 353 353 345 339 334 338 349 344 336 338 347
86 162 340 357 352 140 72 57 342 25 67 139 351 87 26 72 106 82 45 43 43 125 38 49 145 104 156 173 146 162 156 156 198 156 169 227 237 246 338 353 293 249 160 71 334 312 93 84 334 279 268 275 316 339 336 116 101 81 51 64 103 93 112 171 208 319 324 286 299 295 287 291 95 270 318 352 350 350 348 340 335 332 341 350 339 332 342 347
126 187 353 9 5 169 87 93 148 63 78 175 61 31 341 73 102 62 126 50 37 137 91 87 180 75 153 153 110 163 180 132 198 216 135 191 224 152 56 340 316 324 81 82 0 337 335 4 4 343 338 340 344 339 318 309 11 52 79 65 85 79 40 221 155 28 265 252 307 309 290 293 318 328 338 349 346 342 340 336 335 335 345 345 334 332 343 345
93 163 302 13 37 75 100 150 144 128 157 124 80 35 355 58 90 96 144 135 163 155 117 87 169 90 128 129 66 86 201 45 169 265 59 186 254 342 50 337 316 0 65 338 317 318 308 71 82 67 5 325 314 308 302 310 329 351 94 50 37 68 71 62 56 336 277 284 294 278 280 298 313 327 339 345 343 337 336 337 337 341 345 338 331 334 342 344
108 74 309 352 28 56 72 95 100 112 152 132 87 14 44 88 322 274 129 115 131 137 84 66 170 95 97 100 56 20 323 23 59 98 120 221 262 291 0 331 320 243 292 327 353 72 92 109 153 149 184 246 256 266 283 307 313 304 331 12 352 7 72 60 33 298 295 297 282 265 290 305 315 329 338 340 340 337 335 337 336 338 339 333 331 338 341 343
104 102 85 344 8 41 45 27 52 88 148 139 109 185 184 138 314 348 99 135 154 123 72 99 133 95 91 90 67 335 275 14 24 81 140 249 272 292 293 251 268 295 290 288 292 92 82 316 241 182 211 239 249 264 282 298 289 285 300 340 308 331 29 42 308 268 290 309 306 307 313 312 315 328 337 336 338 336 333 334 335 337 336 334 338 344 341 341
61 142 160 96 73 69 54 41 77 85 77 86 101 139 159 123 152 170 151 74 85 123 137 79 24 27 164 155 117 134 0 27 345 249 154 250 288 340 354 258 279 308 356 0 338 99 106 264 237 200 246 259 262 268 274 277 271 267 240 177 299 331 339 247 246 261 280 294 293 303 314 313 312 325 335 334 335 331 327 330 337 337 335 336 344 344 340 339
77 111 29 18 96 144 130 54 104 93 68 67 98 147 162 160 181 206 177 75 31 326 127 135 310 311 230 178 126 134 199 126 273 266 193 183 249 0 61 262 281 309 66 38 359 100 135 254 235 225 281 276 266 268 268 255 245 213 163 242 266 269 262 251 251 258 250 249 271 295 309 308 310 325 328 326 329 326 325 333 340 336 333 340 346 341 337 338
144 147 143 61 73 94 25 32 85 90 58 55 97 153 164 164 182 199 157 110 130 277 7 126 216 216 197 175 144 165 214 179 179 240 183 163 277 217 165 197 195 8 28 59 357 345 14 311 293 86 316 291 269 276 279 237 231 211 188 258 273 266 266 260 259 268 268 273 287 304 307 300 308 324 319 321 329 329 331 336 336 332 335 345 343 337 336 336
110 134 141 111 71 349 351 22 72 102 89 58 138 168 187 189 186 157 123 179 169 186 194 159 160 149 102 168 183 236 230 180 173 204 179 167 224 199 180 197 164 115 1 69 341 344 37 339 352 60 346 285 252 319 315 325 108 161 209 269 290 296 286 256 248 283 301 305 308 314 306 297 313 323 321 328 331 330 334 334 330 330 343 347 339 335 335 334
105 99 122 106 79 331 353 32 34 106 145 211 142 157 197 207 197 139 113 45 10 141 193 167 154 141 112 187 219 236 210 178 174 196 176 152 123 113 113 146 136 129 149 133 42 337 101 54 338 54 322 274 304 332 312 348 76 78 241 227 220 256 289 288 294 301 303 313 314 303 289 302 321 327 327 330 330 330 334 332 326 333 345 343 336 333 333 335